Date String (YYYY-MM-DD hh:mm:ss) UTC,Instrument flags,Ambient pressure (hPa),Sample flow (lpm),Bypass flow (lpm),Sample temperature (°C),Ambient temperature (°C),ASC tube jacket temperature (°C),LED temperature (°C),Box temperature (°C),Sample RH (%),Span deviation,Mass concentration (μg/m³),Mass concentration (μg/m³),Mass concentration (μg/m³)
DateTimeUTC,F1_M11,P_M11,Q1_M11,Q2_M11,T1_M11,T2_M11,T3_M11,T4_M11,T5_M11,U1_M11,ZSPAN_M11,X0_M11,X2_M11,X1_M11
2022-10-06 10:00:00,,0834.3,5.01,0.00,28.3,26.6,00.0,37.1,30.1,18.4,-000.2,0009.84,0005.78,0005.49
2022-10-06 10:01:00,,0834.3,4.99,0.00,28.3,26.6,00.0,37.1,30.1,18.3,-000.4,0009.31,0005.78,0005.50
2022-10-06 10:02:00,,0834.3,5.01,0.00,28.3,26.6,00.0,37.1,30.0,18.4,0000.1,0009.55,0005.79,0005.50
2022-10-06 10:03:00,,0834.3,5.02,0.00,28.3,26.6,00.0,37.1,30.0,18.4,0000.7,0009.27,0005.78,0005.52
2022-10-06 10:04:00,,0834.3,4.98,0.00,28.2,26.5,00.0,37.1,30.0,18.4,0000.4,0009.23,0005.77,0005.51
2022-10-06 10:05:00,,0834.3,5.01,0.00,28.2,26.6,00.0,37.1,30.0,18.4,0000.4,0009.19,0005.75,0005.50
2022-10-06 10:06:00,,0834.3,5.00,0.00,28.2,26.6,00.0,37.1,30.0,18.4,0000.0,0009.22,0005.74,0005.49
2022-10-06 10:07:00,,0834.3,5.00,0.00,28.2,26.5,00.0,37.1,30.0,18.4,0000.0,0009.15,0005.71,0005.48
2022-10-06 10:08:00,,0834.3,5.01,0.00,28.2,26.5,00.0,37.0,30.0,18.4,0000.0,0009.14,0005.71,0005.47
2022-10-06 10:09:00,,0834.3,4.99,0.00,28.2,26.6,00.0,37.0,30.0,18.4,0000.0,0009.46,0005.72,0005.47
2022-10-06 10:10:00,,0834.3,5.01,0.00,28.2,26.5,00.0,37.0,30.0,18.4,0000.0,0010.16,0005.73,0005.47
2022-10-06 10:11:00,,0834.3,4.99,0.00,28.2,26.5,00.0,37.0,30.0,18.4,0000.0,0010.08,0005.72,0005.47
2022-10-06 10:12:00,,0834.3,5.00,0.00,28.2,26.5,00.0,37.0,30.0,18.4,0000.0,0010.12,0005.73,0005.46
2022-10-06 10:13:00,,0834.3,5.01,0.00,28.2,26.5,00.0,37.0,30.0,18.4,0000.0,0009.50,0005.74,0005.44
2022-10-06 10:14:00,,0834.3,5.00,0.00,28.2,26.5,00.0,37.0,30.0,18.4,0000.0,0009.64,0005.70,0005.42
2022-10-06 10:15:00,,0834.3,4.99,0.00,28.2,26.5,00.0,37.0,30.0,18.3,0000.0,0010.15,0005.69,0005.40
2022-10-06 10:16:00,,0834.3,5.00,0.00,28.2,26.5,00.0,37.0,30.0,18.3,0000.0,0010.62,0005.73,0005.40
2022-10-06 10:17:00,,0834.3,5.00,0.00,28.2,26.5,00.0,37.0,30.0,18.3,0000.0,0010.56,0005.73,0005.41
2022-10-06 10:18:00,,0834.3,5.01,0.00,28.2,26.5,00.0,37.0,29.9,18.3,0000.0,0011.44,0005.74,0005.42
2022-10-06 10:19:00,,0834.3,5.00,0.00,28.2,26.5,00.0,37.0,30.0,18.3,0000.2,0012.18,0005.77,0005.42
2022-10-06 10:20:00,,0834.3,4.99,0.00,28.2,26.5,00.0,37.0,30.0,18.3,0000.1,0012.97,0005.80,0005.42
2022-10-06 10:21:00,,0834.3,5.01,0.00,28.2,26.5,00.0,37.0,29.9,18.3,0000.0,0012.41,0005.82,0005.41
2022-10-06 10:22:00,,0834.3,4.98,0.00,28.2,26.5,00.0,37.0,29.9,18.3,0000.0,0012.51,0005.84,0005.40
2022-10-06 10:23:00,,0834.3,5.01,0.00,28.2,26.4,00.0,37.0,29.9,18.3,-000.2,0012.49,0005.83,0005.39
2022-10-06 10:24:00,,0834.3,4.98,0.00,28.2,26.5,00.0,37.0,30.0,18.3,-000.3,0012.45,0005.83,0005.39
2022-10-06 10:25:00,,0834.3,5.01,0.00,28.1,26.4,00.0,36.9,30.0,18.3,0000.1,0012.35,0005.85,0005.41
2022-10-06 10:26:00,,0834.3,5.00,0.00,28.1,26.4,00.0,36.9,29.9,18.3,0001.1,0011.93,0005.87,0005.42
2022-10-06 10:27:00,,0834.3,5.01,0.00,28.1,26.4,00.0,36.9,30.0,18.3,0001.2,0011.55,0005.87,0005.42
2022-10-06 10:28:00,,0834.3,5.00,0.00,28.1,26.4,00.0,36.9,29.9,18.3,0001.7,0012.46,0005.92,0005.44
2022-10-06 10:29:00,,0834.3,5.01,0.00,28.1,26.4,00.0,36.9,29.9,18.3,0002.2,0012.49,0005.94,0005.45
2022-10-06 10:30:00,,0834.3,5.00,0.00,28.1,26.4,00.0,36.9,29.9,18.3,0002.0,0012.04,0005.95,0005.44
2022-10-06 10:31:00,,0834.3,4.99,0.00,28.1,26.4,00.0,36.9,29.9,18.3,0001.8,0011.38,0005.92,0005.45
2022-10-06 10:32:00,,0834.3,5.02,0.00,28.1,26.4,00.0,36.9,29.9,18.3,0001.6,0011.71,0005.93,0005.47
2022-10-06 10:33:00,,0834.2,4.99,0.00,28.1,26.4,00.0,36.9,29.8,18.2,0001.4,0011.59,0005.92,0005.50
2022-10-06 10:34:00,,0834.3,5.01,0.00,28.1,26.4,00.0,36.9,29.9,18.2,0001.1,0012.02,0005.95,0005.53
2022-10-06 10:35:00,,0834.3,4.99,0.00,28.1,26.4,00.0,36.9,29.9,18.2,0001.1,0012.09,0005.97,0005.55
2022-10-06 10:36:00,,0834.3,5.01,0.00,28.1,26.4,00.0,36.9,29.8,18.1,0001.0,0012.20,0005.98,0005.56
2022-10-06 10:37:00,,0834.3,5.00,0.00,28.1,26.3,00.0,36.9,29.8,18.2,0000.7,0012.47,0005.99,0005.56
2022-10-06 10:38:00,,0834.3,5.00,0.00,28.1,26.3,00.0,36.9,29.8,18.2,0000.1,0012.43,0005.98,0005.56
2022-10-06 10:39:00,,0834.3,5.00,0.00,28.1,26.4,00.0,36.9,29.8,18.2,-000.8,0011.59,0005.96,0005.55
2022-10-06 10:40:00,,0834.3,4.99,0.00,28.0,26.3,00.0,36.9,29.8,18.2,-001.4,0010.86,0005.94,0005.56
2022-10-06 10:41:00,,0834.2,5.01,0.00,28.0,26.3,00.0,36.9,29.8,18.2,-001.1,0010.42,0005.93,0005.57
2022-10-06 10:42:00,,0834.3,4.99,0.00,28.0,26.3,00.0,36.9,29.8,18.1,-001.6,0010.41,0005.93,0005.57
2022-10-06 10:43:00,,0834.3,5.00,0.00,28.0,26.3,00.0,36.8,29.8,18.2,-000.1,0009.60,0005.92,0005.57
2022-10-06 10:44:00,,0834.3,5.00,0.00,28.0,26.3,00.0,36.8,29.8,18.3,0000.0,0009.68,0005.90,0005.55
2022-10-06 10:45:00,,0834.3,4.99,0.00,28.0,26.3,00.0,36.8,29.7,18.2,0000.0,0009.38,0005.94,0005.57
2022-10-06 10:46:00,,0834.3,5.01,0.00,28.0,26.3,00.0,36.8,29.8,18.3,-000.2,0009.45,0005.97,0005.60
2022-10-06 10:47:00,,0834.3,4.99,0.00,28.0,26.3,00.0,36.8,29.8,18.3,-000.7,0009.55,0006.00,0005.65
2022-10-06 10:48:00,,0834.2,5.01,0.00,28.0,26.3,00.0,36.8,29.8,18.6,-001.0,0009.41,0006.03,0005.67
2022-10-06 10:49:00,,0834.3,5.01,0.00,28.0,26.3,00.0,36.8,29.8,18.3,-000.1,0009.44,0006.06,0005.71
2022-10-06 10:50:00,,0834.3,4.99,0.00,28.0,26.3,00.0,36.8,29.8,18.2,0000.7,0009.45,0006.08,0005.76
2022-10-06 10:51:00,,0834.3,5.01,0.00,28.0,26.3,00.0,36.8,29.8,18.6,0001.8,0009.43,0006.09,0005.77
2022-10-06 10:52:00,,0834.3,4.99,0.00,28.0,26.3,00.0,36.8,29.7,18.8,0000.9,0009.92,0006.12,0005.78
2022-10-06 10:53:00,,0834.3,5.01,0.00,28.0,26.3,00.0,36.8,29.8,18.4,0000.9,0010.16,0006.18,0005.82
2022-10-06 10:54:00,,0834.3,4.99,0.00,28.0,26.3,00.0,36.8,29.8,18.3,0000.9,0010.29,0006.22,0005.86
2022-10-06 10:55:00,,0834.3,5.01,0.00,28.0,26.2,00.0,36.8,29.7,18.3,0001.2,0010.30,0006.30,0005.91
2022-10-06 10:56:00,,0834.2,5.01,0.00,27.9,26.2,00.0,36.8,29.7,18.4,0000.9,0010.30,0006.29,0005.91
2022-10-06 10:57:00,,0834.3,4.99,0.00,27.9,26.3,00.0,36.8,29.7,18.4,0000.6,0010.22,0006.29,0005.90
2022-10-06 10:58:00,,0834.3,5.01,0.00,27.9,26.2,00.0,36.8,29.7,18.3,0001.0,0010.16,0006.32,0005.89
2022-10-06 10:59:00,,0834.2,4.99,0.00,27.9,26.2,00.0,36.8,29.7,18.3,0001.8,0010.12,0006.30,0005.89
